Time,TemperatureF,DewpointF,PressureIn,WindDirection,WindDirectionDegrees,WindSpeedMPH,WindSpeedGustMPH,Humidity,HourlyPrecipIn,Conditions,Clouds,dailyrainin,SolarRadiationWatts/m^2,SoftwareType,DateUTC
2013-04-14 00:01:00,40.9,32.6,29.87,East,87,0.0,0.0,72,0.00,,,0.00,0,Wunderground v.1.15,2013-04-14 04:01:00,
2013-04-14 00:02:00,40.9,32.6,29.87,East,88,0.0,1.0,72,0.00,,,0.00,0,Wunderground v.1.15,2013-04-14 04:02:00,
2013-04-14 00:03:00,40.9,32.6,29.87,East,87,0.0,1.0,72,0.00,,,0.00,0,Wunderground v.1.15,2013-04-14 04:03:00,
2013-04-14 00:09:00,40.8,32.8,29.87,East,87,0.0,1.0,73,0.00,,,0.00,0,Wunderground v.1.15,2013-04-14 04:09:00,
2013-04-14 00:11:00,40.8,32.5,29.87,East,88,0.0,0.0,72,0.00,,,0.00,0,Wunderground v.1.15,2013-04-14 04:11:00,
2013-04-14 00:16:00,40.6,32.6,29.87,East,88,0.0,0.0,73,0.00,,,0.00,0,Wunderground v.1.15,2013-04-14 04:16:00,
2013-04-14 00:21:00,40.6,32.6,29.87,East,89,0.0,0.0,73,0.00,,,0.00,0,Wunderground v.1.15,2013-04-14 04:21:00,
2013-04-14 00:27:00,40.5,32.5,29.87,East,89,0.0,0.0,73,0.00,,,0.00,0,Wunderground v.1.15,2013-04-14 04:27:00,
2013-04-14 00:33:00,40.5,32.5,29.87,East,89,0.0,0.0,73,0.00,,,0.00,0,Wunderground v.1.15,2013-04-14 04:33:00,
2013-04-14 00:39:00,40.5,32.5,29.87,East,89,0.0,0.0,73,0.00,,,0.00,0,Wunderground v.1.15,2013-04-14 04:39:00,
2013-04-14 00:46:00,40.5,32.5,29.87,East,89,0.0,0.0,73,0.00,,,0.00,0,Wunderground v.1.15,2013-04-14 04:46:00,
2013-04-14 00:51:00,40.3,32.3,29.87,East,89,0.0,0.0,73,0.00,,,0.00,0,Wunderground v.1.15,2013-04-14 04:51:00,
2013-04-14 00:56:00,40.3,32.7,29.87,East,89,0.0,0.0,74,0.00,,,0.00,0,Wunderground v.1.15,2013-04-14 04:56:00,
2013-04-14 01:02:00,40.2,32.9,29.87,East,89,0.0,0.0,75,0.00,,,0.00,0,Wunderground v.1.15,2013-04-14 05:02:00,
2013-04-14 01:07:00,40.2,32.9,29.87,East,89,0.0,0.0,75,0.00,,,0.00,0,Wunderground v.1.15,2013-04-14 05:07:00,
2013-04-14 01:13:00,40.1,32.8,29.87,East,89,0.0,0.0,75,0.00,,,0.00,0,Wunderground v.1.15,2013-04-14 05:13:00,
2013-04-14 01:18:00,40.1,32.8,29.86,East,89,0.0,0.0,75,0.00,,,0.00,0,Wunderground v.1.15,2013-04-14 05:18:00,
2013-04-14 01:24:00,40.1,32.8,29.86,East,89,0.0,0.0,75,0.00,,,0.00,0,Wunderground v.1.15,2013-04-14 05:24:00,
2013-04-14 01:31:00,39.9,32.6,29.86,East,89,0.0,0.0,75,0.00,,,0.00,0,Wunderground v.1.15,2013-04-14 05:31:00,
2013-04-14 01:36:00,39.9,32.9,29.86,East,89,0.0,0.0,76,0.00,,,0.00,0,Wunderground v.1.15,2013-04-14 05:36:00,
2013-04-14 01:41:00,39.9,32.9,29.86,East,89,0.0,0.0,76,0.00,,,0.00,0,Wunderground v.1.15,2013-04-14 05:41:00,
2013-04-14 01:47:00,39.9,32.9,29.86,East,89,0.0,0.0,76,0.00,,,0.00,0,Wunderground v.1.15,2013-04-14 05:47:00,
2013-04-14 01:52:00,39.9,32.9,29.86,East,89,0.0,0.0,76,0.00,,,0.00,0,Wunderground v.1.15,2013-04-14 05:52:00,
2013-04-14 01:58:00,39.8,33.2,29.86,East,89,0.0,0.0,77,0.00,,,0.00,0,Wunderground v.1.15,2013-04-14 05:58:00,
2013-04-14 02:03:00,39.8,33.2,29.86,East,90,0.0,0.0,77,0.00,,,0.00,0,Wunderground v.1.15,2013-04-14 06:03:00,
2013-04-14 02:09:00,39.8,33.2,29.86,East,90,0.0,0.0,77,0.00,,,0.00,0,Wunderground v.1.15,2013-04-14 06:09:00,
2013-04-14 02:16:00,39.9,33.3,29.86,East,90,0.0,0.0,77,0.00,,,0.00,0,Wunderground v.1.15,2013-04-14 06:16:00,
2013-04-14 02:21:00,39.9,33.6,29.86,East,90,0.0,0.0,78,0.00,,,0.00,0,Wunderground v.1.15,2013-04-14 06:21:00,
2013-04-14 02:27:00,39.9,33.6,29.86,East,90,0.0,0.0,78,0.00,,,0.00,0,Wunderground v.1.15,2013-04-14 06:27:00,
2013-04-14 02:32:00,39.9,33.6,29.86,East,90,0.0,0.0,78,0.00,,,0.00,0,Wunderground v.1.15,2013-04-14 06:32:00,
2013-04-14 02:37:00,39.9,33.6,29.86,East,90,0.0,0.0,78,0.00,,,0.00,0,Wunderground v.1.15,2013-04-14 06:37:00,
2013-04-14 02:43:00,39.8,33.8,29.86,East,90,0.0,0.0,79,0.00,,,0.00,0,Wunderground v.1.15,2013-04-14 06:43:00,
2013-04-14 02:49:00,39.8,33.8,29.86,East,90,0.0,0.0,79,0.00,,,0.00,0,Wunderground v.1.15,2013-04-14 06:49:00,
2013-04-14 02:56:00,39.8,33.8,29.86,ESE,103,0.0,2.0,79,0.00,,,0.00,0,Wunderground v.1.15,2013-04-14 06:56:00,
2013-04-14 03:01:00,39.8,33.5,29.85,ESE,103,0.0,0.0,78,0.00,,,0.00,0,Wunderground v.1.15,2013-04-14 07:01:00,
2013-04-14 03:07:00,39.6,33.3,29.85,ESE,103,0.0,1.0,78,0.00,,,0.00,0,Wunderground v.1.15,2013-04-14 07:07:00,
2013-04-14 03:13:00,39.6,33.6,29.85,East,80,0.0,0.0,79,0.00,,,0.00,0,Wunderground v.1.15,2013-04-14 07:13:00,
2013-04-14 03:19:00,39.6,33.3,29.86,East,80,0.0,2.0,78,0.00,,,0.00,0,Wunderground v.1.15,2013-04-14 07:19:00,
2013-04-14 03:24:00,39.6,33.6,29.86,East,80,0.0,0.0,79,0.00,,,0.00,0,Wunderground v.1.15,2013-04-14 07:24:00,
2013-04-14 03:31:00,39.6,33.3,29.86,East,98,1.0,3.0,78,0.00,,,0.00,0,Wunderground v.1.15,2013-04-14 07:31:00,
2013-04-14 03:36:00,39.6,33.3,29.86,East,101,1.0,3.0,78,0.00,,,0.00,0,Wunderground v.1.15,2013-04-14 07:36:00,
2013-04-14 03:41:00,39.6,33.6,29.86,South,179,0.0,0.0,79,0.00,,,0.00,0,Wunderground v.1.15,2013-04-14 07:41:00,
2013-04-14 03:47:00,39.6,33.6,29.86,South,179,0.0,0.0,79,0.00,,,0.00,0,Wunderground v.1.15,2013-04-14 07:47:00,
2013-04-14 03:52:00,39.6,33.6,29.86,South,179,0.0,0.0,79,0.00,,,0.00,0,Wunderground v.1.15,2013-04-14 07:52:00,
2013-04-14 03:58:00,39.6,33.6,29.86,North,1,0.0,4.0,79,0.00,,,0.00,0,Wunderground v.1.15,2013-04-14 07:58:00,
2013-04-14 04:03:00,39.5,33.5,29.85,North,1,0.0,1.0,79,0.00,,,0.00,0,Wunderground v.1.15,2013-04-14 08:03:00,
2013-04-14 04:09:00,39.5,33.5,29.85,North,1,0.0,1.0,79,0.00,,,0.00,0,Wunderground v.1.15,2013-04-14 08:09:00,
2013-04-14 04:14:00,39.5,33.5,29.85,North,1,0.0,0.0,79,0.00,,,0.00,0,Wunderground v.1.15,2013-04-14 08:14:00,
2013-04-14 04:19:00,39.5,33.8,29.86,NE,45,0.0,1.0,80,0.00,,,0.00,0,Wunderground v.1.15,2013-04-14 08:19:00,
2013-04-14 04:26:00,39.5,33.8,29.86,NE,45,0.0,0.0,80,0.00,,,0.00,0,Wunderground v.1.15,2013-04-14 08:26:00,
2013-04-14 04:31:00,39.5,33.8,29.86,ENE,59,0.0,3.0,80,0.00,,,0.00,0,Wunderground v.1.15,2013-04-14 08:31:00,
2013-04-14 04:37:00,39.5,33.8,29.86,ENE,59,1.0,3.0,80,0.00,,,0.00,0,Wunderground v.1.15,2013-04-14 08:37:00,
2013-04-14 04:42:00,39.3,33.6,29.86,East,95,0.0,2.0,80,0.00,,,0.00,0,Wunderground v.1.15,2013-04-14 08:42:00,
2013-04-14 04:48:00,39.3,33.6,29.86,East,82,0.0,3.0,80,0.00,,,0.00,0,Wunderground v.1.15,2013-04-14 08:48:00,
2013-04-14 04:53:00,39.3,33.6,29.86,ENE,63,0.0,1.0,80,0.00,,,0.00,0,Wunderground v.1.15,2013-04-14 08:53:00,
2013-04-14 04:59:00,39.3,33.6,29.86,ENE,62,0.0,1.0,80,0.00,,,0.00,0,Wunderground v.1.15,2013-04-14 08:59:00,
2013-04-14 05:06:00,39.3,33.6,29.86,ENE,62,0.0,1.0,80,0.00,,,0.00,0,Wunderground v.1.15,2013-04-14 09:06:00,
2013-04-14 05:11:00,39.3,33.6,29.86,ENE,63,0.0,3.0,80,0.00,,,0.00,0,Wunderground v.1.15,2013-04-14 09:11:00,
2013-04-14 05:17:00,39.3,33.6,29.86,ESE,110,1.0,3.0,80,0.00,,,0.00,0,Wunderground v.1.15,2013-04-14 09:17:00,
2013-04-14 05:22:00,39.2,33.5,29.86,ESE,113,1.0,1.0,80,0.00,,,0.00,0,Wunderground v.1.15,2013-04-14 09:22:00,
2013-04-14 05:28:00,39.2,33.5,29.86,ESE,113,0.0,1.0,80,0.00,,,0.00,0,Wunderground v.1.15,2013-04-14 09:28:00,
2013-04-14 05:34:00,39.2,33.5,29.86,ESE,113,0.0,2.0,80,0.00,,,0.00,0,Wunderground v.1.15,2013-04-14 09:34:00,
2013-04-14 05:41:00,39.2,33.5,29.86,ESE,112,0.0,0.0,80,0.00,,,0.00,0,Wunderground v.1.15,2013-04-14 09:41:00,
2013-04-14 05:46:00,39.2,33.5,29.86,ENE,58,1.0,2.0,80,0.00,,,0.00,0,Wunderground v.1.15,2013-04-14 09:46:00,
2013-04-14 05:51:00,39.2,33.9,29.86,ENE,58,1.0,1.0,81,0.00,,,0.00,0,Wunderground v.1.15,2013-04-14 09:51:00,
2013-04-14 05:57:00,39.1,33.8,29.86,ENE,58,0.0,1.0,81,0.00,,,0.00,0,Wunderground v.1.15,2013-04-14 09:57:00,
2013-04-14 06:02:00,39.1,33.8,29.86,ENE,58,0.0,0.0,81,0.00,,,0.00,0,Wunderground v.1.15,2013-04-14 10:02:00,
2013-04-14 06:07:00,39.1,33.8,29.86,ENE,58,0.0,1.0,81,0.00,,,0.00,0,Wunderground v.1.15,2013-04-14 10:07:00,
2013-04-14 06:12:00,38.9,33.6,29.86,ENE,58,0.0,0.0,81,0.00,,,0.00,0,Wunderground v.1.15,2013-04-14 10:12:00,
2013-04-14 06:17:00,38.9,33.6,29.87,ENE,58,0.0,0.0,81,0.00,,,0.00,0,Wunderground v.1.15,2013-04-14 10:17:00,
2013-04-14 06:23:00,38.9,33.9,29.87,ENE,58,0.0,0.0,82,0.00,,,0.00,0,Wunderground v.1.15,2013-04-14 10:23:00,
2013-04-14 06:29:00,38.9,33.9,29.87,ENE,58,0.0,0.0,82,0.00,,,0.00,5,Wunderground v.1.15,2013-04-14 10:29:00,
2013-04-14 06:36:00,38.9,33.9,29.88,ENE,58,0.0,2.0,82,0.00,,,0.00,11,Wunderground v.1.15,2013-04-14 10:36:00,
2013-04-14 06:41:00,38.9,33.9,29.88,ENE,58,0.0,0.0,82,0.00,,,0.00,12,Wunderground v.1.15,2013-04-14 10:41:00,
2013-04-14 06:47:00,38.9,33.9,29.88,ENE,58,0.0,3.0,82,0.00,,,0.00,11,Wunderground v.1.15,2013-04-14 10:47:00,
2013-04-14 06:52:00,38.9,34.2,29.88,ENE,68,1.0,2.0,83,0.00,,,0.00,11,Wunderground v.1.15,2013-04-14 10:52:00,
2013-04-14 06:57:00,38.9,34.2,29.88,ENE,68,1.0,2.0,83,0.00,,,0.01,11,Wunderground v.1.15,2013-04-14 10:57:00,
2013-04-14 07:03:00,38.8,34.7,29.89,ENE,69,1.0,2.0,85,0.00,,,0.01,7,Wunderground v.1.15,2013-04-14 11:03:00,
2013-04-14 07:09:00,38.6,34.8,29.89,East,86,1.0,2.0,86,0.00,,,0.01,9,Wunderground v.1.15,2013-04-14 11:09:00,
2013-04-14 07:16:00,38.5,34.7,29.91,ENE,71,0.0,2.0,86,0.00,,,0.01,37,Wunderground v.1.15,2013-04-14 11:16:00,
2013-04-14 07:21:00,38.5,35.0,29.91,ENE,70,0.0,0.0,87,0.00,,,0.02,39,Wunderground v.1.15,2013-04-14 11:21:00,
2013-04-14 07:27:00,38.3,34.8,29.91,ENE,70,0.0,0.0,87,0.00,,,0.02,32,Wunderground v.1.15,2013-04-14 11:27:00,
2013-04-14 07:32:00,38.3,34.8,29.92,ENE,70,0.0,0.0,87,0.00,,,0.02,33,Wunderground v.1.15,2013-04-14 11:32:00,
2013-04-14 07:38:00,38.3,34.8,29.92,ENE,70,0.0,0.0,87,0.00,,,0.02,30,Wunderground v.1.15,2013-04-14 11:38:00,
2013-04-14 07:44:00,38.5,35.0,29.92,ENE,70,0.0,0.0,87,0.00,,,0.02,39,Wunderground v.1.15,2013-04-14 11:44:00,
2013-04-14 07:51:00,38.5,35.3,29.92,ENE,70,0.0,0.0,88,0.00,,,0.02,81,Wunderground v.1.15,2013-04-14 11:51:00,
2013-04-14 07:56:00,38.5,35.3,29.92,ENE,70,0.0,0.0,88,0.00,,,0.02,104,Wunderground v.1.15,2013-04-14 11:56:00,
2013-04-14 08:01:00,38.6,35.4,29.93,ENE,70,0.0,0.0,88,0.00,,,0.02,104,Wunderground v.1.15,2013-04-14 12:01:00,
2013-04-14 08:06:00,38.8,35.6,29.93,ENE,70,0.0,0.0,88,0.00,,,0.02,118,Wunderground v.1.15,2013-04-14 12:06:00,
2013-04-14 08:12:00,39.1,36.1,29.93,ENE,70,0.0,0.0,89,0.00,,,0.02,114,Wunderground v.1.15,2013-04-14 12:12:00,
2013-04-14 08:17:00,39.2,36.2,29.93,ENE,70,0.0,0.0,89,0.00,,,0.02,107,Wunderground v.1.15,2013-04-14 12:17:00,
2013-04-14 08:23:00,39.5,36.5,29.93,ENE,70,0.0,0.0,89,0.00,,,0.02,105,Wunderground v.1.15,2013-04-14 12:23:00,
2013-04-14 08:29:00,39.5,36.5,29.93,ENE,70,0.0,0.0,89,0.00,,,0.02,118,Wunderground v.1.15,2013-04-14 12:29:00,
2013-04-14 08:36:00,39.6,36.6,29.94,ENE,70,0.0,0.0,89,0.00,,,0.02,128,Wunderground v.1.15,2013-04-14 12:36:00,
2013-04-14 08:41:00,39.9,36.6,29.94,ENE,70,0.0,1.0,88,0.00,,,0.02,139,Wunderground v.1.15,2013-04-14 12:41:00,
2013-04-14 08:47:00,40.1,36.8,29.94,ENE,70,0.0,1.0,88,0.00,,,0.02,156,Wunderground v.1.15,2013-04-14 12:47:00,
2013-04-14 08:52:00,40.2,36.9,29.94,ENE,70,0.0,0.0,88,0.00,,,0.02,146,Wunderground v.1.15,2013-04-14 12:52:00,
2013-04-14 08:58:00,40.3,37.0,29.94,ENE,70,0.0,0.0,88,0.00,,,0.02,163,Wunderground v.1.15,2013-04-14 12:58:00,
2013-04-14 09:03:00,40.3,36.7,29.94,ENE,70,0.0,1.0,87,0.00,,,0.02,162,Wunderground v.1.15,2013-04-14 13:03:00,
2013-04-14 09:09:00,40.6,37.0,29.94,ENE,70,0.0,1.0,87,0.00,,,0.02,171,Wunderground v.1.15,2013-04-14 13:09:00,
2013-04-14 09:16:00,40.8,36.9,29.94,ENE,70,0.0,0.0,86,0.00,,,0.02,221,Wunderground v.1.15,2013-04-14 13:16:00,
2013-04-14 09:21:00,41.2,37.3,29.94,ENE,70,0.0,0.0,86,0.00,,,0.02,425,Wunderground v.1.15,2013-04-14 13:21:00,
2013-04-14 09:26:00,41.8,37.3,29.94,ENE,70,0.0,0.0,84,0.00,,,0.02,519,Wunderground v.1.15,2013-04-14 13:26:00,
2013-04-14 09:31:00,42.3,37.5,29.94,ENE,70,0.0,0.0,83,0.00,,,0.02,591,Wunderground v.1.15,2013-04-14 13:31:00,
2013-04-14 09:37:00,43.1,36.7,29.94,ENE,70,0.0,3.0,78,0.00,,,0.02,631,Wunderground v.1.15,2013-04-14 13:37:00,
2013-04-14 09:42:00,43.8,36.7,29.94,ENE,70,0.0,0.0,76,0.00,,,0.02,636,Wunderground v.1.15,2013-04-14 13:42:00,
2013-04-14 09:48:00,44.5,36.0,29.94,ENE,70,0.0,2.0,72,0.00,,,0.02,619,Wunderground v.1.15,2013-04-14 13:48:00,
2013-04-14 09:54:00,45.7,37.5,29.94,ENE,70,1.0,1.0,73,0.00,,,0.02,439,Wunderground v.1.15,2013-04-14 13:54:00,
2013-04-14 10:01:00,47.3,37.6,29.94,ENE,70,0.0,2.0,69,0.00,,,0.02,297,Wunderground v.1.15,2013-04-14 14:01:00,
2013-04-14 10:06:00,46.7,36.3,29.94,ENE,70,0.0,2.0,67,0.00,,,0.02,283,Wunderground v.1.15,2013-04-14 14:06:00,
2013-04-14 10:11:00,46.1,35.0,29.94,ENE,70,0.0,0.0,65,0.00,,,0.02,214,Wunderground v.1.15,2013-04-14 14:11:00,
2013-04-14 10:16:00,45.1,34.4,29.94,ESE,105,0.0,2.0,66,0.00,,,0.02,204,Wunderground v.1.15,2013-04-14 14:16:00,
2013-04-14 10:22:00,44.9,34.6,29.94,ESE,105,0.0,0.0,67,0.00,,,0.02,207,Wunderground v.1.15,2013-04-14 14:22:00,
2013-04-14 10:27:00,44.8,33.7,29.94,ESE,105,0.0,2.0,65,0.00,,,0.02,221,Wunderground v.1.15,2013-04-14 14:27:00,
2013-04-14 10:33:00,44.3,33.3,29.94,ENE,57,0.0,1.0,65,0.00,,,0.02,239,Wunderground v.1.15,2013-04-14 14:33:00,
2013-04-14 10:39:00,44.1,32.7,29.94,East,88,0.0,1.0,64,0.00,,,0.02,120,Wunderground v.1.15,2013-04-14 14:39:00,
2013-04-14 10:46:00,43.6,32.2,29.95,East,88,0.0,2.0,64,0.00,,,0.02,51,Wunderground v.1.15,2013-04-14 14:46:00,
2013-04-14 10:51:00,43.6,32.2,29.95,East,88,0.0,0.0,64,0.00,,,0.02,44,Wunderground v.1.15,2013-04-14 14:51:00,
2013-04-14 10:57:00,43.5,32.5,29.95,East,88,0.0,0.0,65,0.00,,,0.02,47,Wunderground v.1.15,2013-04-14 14:57:00,
2013-04-14 11:02:00,43.5,33.3,29.96,East,88,0.0,0.0,67,0.00,,,0.02,74,Wunderground v.1.15,2013-04-14 15:02:00,
2013-04-14 11:08:00,43.3,33.1,29.96,East,88,0.0,0.0,67,0.00,,,0.02,114,Wunderground v.1.15,2013-04-14 15:08:00,
2013-04-14 11:14:00,43.2,33.0,29.96,East,88,0.0,0.0,67,0.00,,,0.02,139,Wunderground v.1.15,2013-04-14 15:14:00,
2013-04-14 11:19:00,43.2,33.7,29.96,East,88,0.0,0.0,69,0.00,,,0.02,199,Wunderground v.1.15,2013-04-14 15:19:00,
2013-04-14 11:26:00,43.5,34.4,29.96,East,88,0.0,0.0,70,0.00,,,0.02,179,Wunderground v.1.15,2013-04-14 15:26:00,
2013-04-14 11:31:00,43.5,33.3,29.96,East,88,0.0,0.0,67,0.00,,,0.02,193,Wunderground v.1.15,2013-04-14 15:31:00,
2013-04-14 11:36:00,43.8,33.9,29.96,East,88,0.0,0.0,68,0.00,,,0.02,185,Wunderground v.1.15,2013-04-14 15:36:00,
2013-04-14 11:42:00,43.8,33.6,29.96,East,88,0.0,0.0,67,0.00,,,0.02,135,Wunderground v.1.15,2013-04-14 15:42:00,
2013-04-14 11:47:00,43.5,32.5,29.96,East,88,1.0,2.0,65,0.00,,,0.02,83,Wunderground v.1.15,2013-04-14 15:47:00,
2013-04-14 11:52:00,42.9,32.3,29.96,ESE,123,2.0,4.0,66,0.00,,,0.02,72,Wunderground v.1.15,2013-04-14 15:52:00,
2013-04-14 11:58:00,42.2,33.1,29.96,East,95,2.0,4.0,70,0.00,,,0.02,86,Wunderground v.1.15,2013-04-14 15:58:00,
2013-04-14 12:04:00,41.8,33.8,29.98,East,96,1.0,2.0,73,0.00,,,0.03,81,Wunderground v.1.15,2013-04-14 16:04:00,
2013-04-14 12:11:00,40.5,33.2,29.98,East,96,0.0,0.0,75,0.06,,,0.04,69,Wunderground v.1.15,2013-04-14 16:11:00,
2013-04-14 12:17:00,39.5,32.9,29.98,East,96,0.0,0.0,77,0.13,,,0.05,125,Wunderground v.1.15,2013-04-14 16:17:00,
2013-04-14 12:33:00,39.9,35.5,29.98,East,96,0.0,0.0,84,0.00,,,0.05,288,Wunderground v.1.15,2013-04-14 16:33:00,
2013-04-14 12:38:00,40.3,36.4,29.98,East,96,0.0,1.0,86,0.00,,,0.05,237,Wunderground v.1.15,2013-04-14 16:38:00,
2013-04-14 12:43:00,40.8,36.6,29.98,SE,135,0.0,2.0,85,0.00,,,0.05,274,Wunderground v.1.15,2013-04-14 16:43:00,
2013-04-14 12:49:00,41.2,37.0,29.99,SE,135,0.0,2.0,85,0.00,,,0.05,285,Wunderground v.1.15,2013-04-14 16:49:00,
2013-04-14 12:54:00,41.3,36.5,29.99,SE,134,0.0,0.0,83,0.00,,,0.05,267,Wunderground v.1.15,2013-04-14 16:54:00,
2013-04-14 12:59:00,41.3,36.2,29.99,SE,134,0.0,0.0,82,0.00,,,0.05,264,Wunderground v.1.15,2013-04-14 16:59:00,
2013-04-14 13:04:00,41.3,35.9,29.99,SE,134,0.0,0.0,81,0.00,,,0.05,258,Wunderground v.1.15,2013-04-14 17:04:00,
2013-04-14 13:09:00,41.5,35.8,29.99,SE,135,0.0,1.0,80,0.00,,,0.05,241,Wunderground v.1.15,2013-04-14 17:09:00,
2013-04-14 13:16:00,41.8,36.4,29.99,WSW,238,0.0,2.0,81,0.00,,,0.05,225,Wunderground v.1.15,2013-04-14 17:16:00,
2013-04-14 13:21:00,41.9,35.9,29.99,WSW,238,0.0,0.0,79,0.00,,,0.05,237,Wunderground v.1.15,2013-04-14 17:21:00,
2013-04-14 13:27:00,42.1,36.1,29.99,WSW,238,0.0,2.0,79,0.00,,,0.05,250,Wunderground v.1.15,2013-04-14 17:27:00,
2013-04-14 13:32:00,42.5,36.4,29.99,WSW,238,0.0,1.0,79,0.00,,,0.05,285,Wunderground v.1.15,2013-04-14 17:32:00,
2013-04-14 13:37:00,42.9,36.8,29.99,WSW,238,0.0,1.0,79,0.00,,,0.05,329,Wunderground v.1.15,2013-04-14 17:37:00,
2013-04-14 13:43:00,43.1,36.0,29.99,WSW,238,0.0,0.0,76,0.00,,,0.05,367,Wunderground v.1.15,2013-04-14 17:43:00,
2013-04-14 13:49:00,43.2,35.5,29.99,WSW,239,0.0,2.0,74,0.00,,,0.05,420,Wunderground v.1.15,2013-04-14 17:49:00,
2013-04-14 13:54:00,43.5,34.7,29.99,WSW,239,0.0,0.0,71,0.00,,,0.05,399,Wunderground v.1.15,2013-04-14 17:54:00,
2013-04-14 14:01:00,44.2,34.3,29.99,WSW,238,0.0,0.0,68,0.00,,,0.05,336,Wunderground v.1.15,2013-04-14 18:01:00,
2013-04-14 14:07:00,44.5,34.2,29.99,SSE,159,0.0,1.0,67,0.00,,,0.05,274,Wunderground v.1.15,2013-04-14 18:07:00,
2013-04-14 14:12:00,44.5,33.8,29.99,SSE,159,0.0,0.0,66,0.00,,,0.05,264,Wunderground v.1.15,2013-04-14 18:12:00,
2013-04-14 14:17:00,44.5,33.5,30.00,ESE,114,0.0,2.0,65,0.00,,,0.05,274,Wunderground v.1.15,2013-04-14 18:17:00,
2013-04-14 14:23:00,44.5,33.1,30.00,East,94,0.0,2.0,64,0.00,,,0.05,287,Wunderground v.1.15,2013-04-14 18:23:00,
2013-04-14 14:29:00,44.9,33.8,30.00,ESE,110,0.0,2.0,65,0.00,,,0.05,302,Wunderground v.1.15,2013-04-14 18:29:00,
2013-04-14 14:36:00,45.7,34.6,30.01,ESE,110,0.0,0.0,65,0.00,,,0.05,283,Wunderground v.1.15,2013-04-14 18:36:00,
2013-04-14 14:41:00,46.0,33.7,30.01,ESE,109,0.0,0.0,62,0.00,,,0.05,287,Wunderground v.1.15,2013-04-14 18:41:00,
2013-04-14 14:47:00,46.0,31.6,30.01,East,95,1.0,3.0,57,0.00,,,0.05,294,Wunderground v.1.15,2013-04-14 18:47:00,
2013-04-14 14:53:00,46.0,32.0,30.01,East,95,1.0,2.0,58,0.00,,,0.05,302,Wunderground v.1.15,2013-04-14 18:53:00,
2013-04-14 14:58:00,46.1,33.0,30.01,East,89,1.0,2.0,60,0.00,,,0.05,234,Wunderground v.1.15,2013-04-14 18:58:00,
2013-04-14 15:04:00,46.2,33.5,30.01,East,89,0.0,1.0,61,0.00,,,0.05,200,Wunderground v.1.15,2013-04-14 19:04:00,
2013-04-14 15:09:00,45.8,32.7,30.01,East,81,0.0,1.0,60,0.00,,,0.05,179,Wunderground v.1.15,2013-04-14 19:09:00,
2013-04-14 15:16:00,45.4,33.5,30.02,East,81,0.0,0.0,63,0.00,,,0.05,130,Wunderground v.1.15,2013-04-14 19:16:00,
2013-04-14 15:21:00,45.2,33.3,30.02,East,81,0.0,0.0,63,0.00,,,0.05,93,Wunderground v.1.15,2013-04-14 19:21:00,
2013-04-14 15:26:00,45.2,34.1,30.02,ESE,103,0.0,0.0,65,0.00,,,0.05,47,Wunderground v.1.15,2013-04-14 19:26:00,
2013-04-14 15:32:00,44.6,32.8,30.02,ESE,103,0.0,0.0,63,0.00,,,0.06,77,Wunderground v.1.15,2013-04-14 19:32:00,
2013-04-14 15:38:00,43.9,32.9,30.02,ESE,103,0.0,0.0,65,0.00,,,0.06,105,Wunderground v.1.15,2013-04-14 19:38:00,
2013-04-14 15:44:00,43.2,32.2,30.02,ESE,103,0.0,0.0,65,0.00,,,0.06,137,Wunderground v.1.15,2013-04-14 19:44:00,
2013-04-14 15:51:00,43.1,32.1,30.03,ESE,103,0.0,0.0,65,0.00,,,0.06,141,Wunderground v.1.15,2013-04-14 19:51:00,
2013-04-14 15:56:00,43.2,32.6,30.03,ESE,103,0.0,0.0,66,0.00,,,0.06,114,Wunderground v.1.15,2013-04-14 19:56:00,
2013-04-14 16:02:00,43.3,32.7,30.04,ESE,103,0.0,0.0,66,0.00,,,0.06,111,Wunderground v.1.15,2013-04-14 20:02:00,
2013-04-14 16:07:00,43.5,33.3,30.04,ESE,103,0.0,1.0,67,0.00,,,0.06,125,Wunderground v.1.15,2013-04-14 20:07:00,
2013-04-14 16:13:00,43.5,32.9,30.04,ESE,103,0.0,1.0,66,0.00,,,0.06,144,Wunderground v.1.15,2013-04-14 20:13:00,
2013-04-14 16:19:00,43.5,33.6,30.04,ESE,103,0.0,1.0,68,0.00,,,0.06,118,Wunderground v.1.15,2013-04-14 20:19:00,
2013-04-14 16:26:00,43.3,34.2,30.04,ESE,103,0.0,0.0,70,0.00,,,0.06,192,Wunderground v.1.15,2013-04-14 20:26:00,
2013-04-14 16:32:00,43.3,34.2,30.05,ESE,103,0.0,0.0,70,0.00,,,0.06,188,Wunderground v.1.15,2013-04-14 20:32:00,
2013-04-14 16:37:00,43.3,33.8,30.05,NNE,20,0.0,1.0,69,0.00,,,0.06,135,Wunderground v.1.15,2013-04-14 20:37:00,
2013-04-14 16:42:00,43.3,33.8,30.05,NNE,20,0.0,0.0,69,0.00,,,0.06,107,Wunderground v.1.15,2013-04-14 20:42:00,
2013-04-14 16:48:00,43.1,33.6,30.05,NNE,28,0.0,2.0,69,0.00,,,0.06,72,Wunderground v.1.15,2013-04-14 20:48:00,
2013-04-14 16:54:00,42.8,33.3,30.05,ENE,60,1.0,1.0,69,0.00,,,0.06,60,Wunderground v.1.15,2013-04-14 20:54:00,
2013-04-14 16:59:00,42.5,33.0,30.05,ENE,60,0.0,1.0,69,0.00,,,0.06,56,Wunderground v.1.15,2013-04-14 20:59:00,
2013-04-14 17:06:00,42.3,33.2,30.06,ENE,60,0.0,0.0,70,0.00,,,0.06,49,Wunderground v.1.15,2013-04-14 21:06:00,
2013-04-14 17:11:00,42.3,33.2,30.06,ENE,60,0.0,0.0,70,0.00,,,0.06,49,Wunderground v.1.15,2013-04-14 21:11:00,
2013-04-14 17:17:00,42.3,33.2,30.07,ENE,60,0.0,0.0,70,0.00,,,0.06,30,Wunderground v.1.15,2013-04-14 21:17:00,
2013-04-14 17:23:00,42.2,32.4,30.07,ENE,60,0.0,0.0,68,0.00,,,0.06,40,Wunderground v.1.15,2013-04-14 21:23:00,
2013-04-14 17:28:00,42.1,33.0,30.07,ENE,60,0.0,0.0,70,0.00,,,0.06,37,Wunderground v.1.15,2013-04-14 21:28:00,
2013-04-14 17:34:00,42.2,33.8,30.09,ENE,60,0.0,0.0,72,0.00,,,0.06,28,Wunderground v.1.15,2013-04-14 21:34:00,
2013-04-14 17:41:00,42.1,34.1,30.09,ENE,60,0.0,0.0,73,0.00,,,0.07,23,Wunderground v.1.15,2013-04-14 21:41:00,
2013-04-14 17:46:00,41.8,34.1,30.10,ENE,60,0.0,0.0,74,0.00,,,0.07,26,Wunderground v.1.15,2013-04-14 21:46:00,
2013-04-14 17:52:00,41.5,34.5,30.10,ENE,60,0.0,0.0,76,0.00,,,0.07,39,Wunderground v.1.15,2013-04-14 21:52:00,
2013-04-14 17:58:00,41.3,35.0,30.10,ENE,60,0.0,0.0,78,0.00,,,0.07,47,Wunderground v.1.15,2013-04-14 21:58:00,
2013-04-14 18:03:00,41.1,35.1,30.11,ENE,60,0.0,1.0,79,0.00,,,0.07,49,Wunderground v.1.15,2013-04-14 22:03:00,
2013-04-14 18:08:00,40.8,34.5,30.11,ENE,60,0.0,1.0,78,0.00,,,0.07,46,Wunderground v.1.15,2013-04-14 22:08:00,
2013-04-14 18:14:00,40.6,34.3,30.11,WNW,283,0.0,4.0,78,0.00,,,0.07,39,Wunderground v.1.15,2013-04-14 22:14:00,
2013-04-14 18:19:00,40.6,34.3,30.11,WNW,283,0.0,4.0,78,0.00,,,0.07,35,Wunderground v.1.15,2013-04-14 22:19:00,
2013-04-14 18:26:00,40.8,34.8,30.11,WNW,283,0.0,0.0,79,0.00,,,0.07,35,Wunderground v.1.15,2013-04-14 22:26:00,
2013-04-14 18:31:00,40.8,34.1,30.11,WNW,283,0.0,0.0,77,0.00,,,0.07,40,Wunderground v.1.15,2013-04-14 22:31:00,
2013-04-14 18:37:00,40.8,34.1,30.11,WNW,283,0.0,1.0,77,0.00,,,0.07,46,Wunderground v.1.15,2013-04-14 22:37:00,
2013-04-14 18:42:00,40.9,34.2,30.11,WNW,283,0.0,0.0,77,0.00,,,0.07,33,Wunderground v.1.15,2013-04-14 22:42:00,
2013-04-14 18:48:00,41.1,34.4,30.11,WNW,283,0.0,2.0,77,0.00,,,0.07,30,Wunderground v.1.15,2013-04-14 22:48:00,
2013-04-14 18:54:00,40.9,33.9,30.11,WNW,283,0.0,0.0,76,0.00,,,0.07,26,Wunderground v.1.15,2013-04-14 22:54:00,
2013-04-14 19:01:00,40.9,34.2,30.11,WNW,283,0.0,0.0,77,0.00,,,0.07,26,Wunderground v.1.15,2013-04-14 23:01:00,
2013-04-14 19:07:00,40.8,34.1,30.11,WNW,283,0.0,0.0,77,0.00,,,0.07,21,Wunderground v.1.15,2013-04-14 23:07:00,
2013-04-14 19:13:00,40.6,33.6,30.11,WNW,283,0.0,0.0,76,0.00,,,0.07,16,Wunderground v.1.15,2013-04-14 23:13:00,
2013-04-14 19:18:00,40.5,33.5,30.12,WNW,283,0.0,0.0,76,0.00,,,0.07,12,Wunderground v.1.15,2013-04-14 23:18:00,
2013-04-14 19:24:00,40.2,33.2,30.12,WNW,283,0.0,0.0,76,0.00,,,0.07,9,Wunderground v.1.15,2013-04-14 23:24:00,
2013-04-14 19:31:00,39.9,32.9,30.13,WNW,283,0.0,0.0,76,0.00,,,0.07,5,Wunderground v.1.15,2013-04-14 23:31:00,
2013-04-14 19:36:00,39.5,32.9,30.13,WNW,283,0.0,2.0,77,0.00,,,0.07,0,Wunderground v.1.15,2013-04-14 23:36:00,
2013-04-14 19:42:00,39.1,32.8,30.13,WSW,249,1.0,3.0,78,0.00,,,0.07,0,Wunderground v.1.15,2013-04-14 23:42:00,
2013-04-14 19:47:00,38.8,32.5,30.13,WSW,250,1.0,3.0,78,0.00,,,0.07,0,Wunderground v.1.15,2013-04-14 23:47:00,
2013-04-14 19:53:00,38.5,32.6,30.13,WSW,250,0.0,1.0,79,0.00,,,0.07,0,Wunderground v.1.15,2013-04-14 23:53:00,
2013-04-14 19:58:00,38.2,32.6,30.13,WSW,255,1.0,3.0,80,0.00,,,0.07,0,Wunderground v.1.15,2013-04-14 23:58:00,
2013-04-14 20:04:00,38.0,32.4,30.14,WSW,255,1.0,1.0,80,0.00,,,0.07,0,Wunderground v.1.15,2013-04-15 00:04:00,
2013-04-14 20:09:00,37.8,32.2,30.14,WSW,255,0.0,2.0,80,0.00,,,0.07,0,Wunderground v.1.15,2013-04-15 00:09:00,
2013-04-14 20:16:00,37.5,31.9,30.15,WSW,255,0.0,2.0,80,0.00,,,0.07,0,Wunderground v.1.15,2013-04-15 00:16:00,
2013-04-14 20:22:00,37.2,31.9,30.15,WSW,255,0.0,0.0,81,0.00,,,0.07,0,Wunderground v.1.15,2013-04-15 00:22:00,
2013-04-14 20:27:00,36.9,31.6,30.15,WSW,255,0.0,0.0,81,0.00,,,0.07,0,Wunderground v.1.15,2013-04-15 00:27:00,
2013-04-14 20:32:00,36.6,31.3,30.16,WSW,255,0.0,0.0,81,0.00,,,0.07,0,Wunderground v.1.15,2013-04-15 00:32:00,
2013-04-14 20:38:00,36.3,31.3,30.16,WSW,255,0.0,2.0,82,0.00,,,0.07,0,Wunderground v.1.15,2013-04-15 00:38:00,
2013-04-14 20:43:00,36.0,31.0,30.16,WSW,255,0.0,0.0,82,0.00,,,0.07,0,Wunderground v.1.15,2013-04-15 00:43:00,
2013-04-14 20:49:00,35.9,31.2,30.16,WSW,255,0.0,0.0,83,0.00,,,0.07,0,Wunderground v.1.15,2013-04-15 00:49:00,
2013-04-14 20:56:00,35.6,30.9,30.16,WSW,255,0.0,1.0,83,0.00,,,0.07,0,Wunderground v.1.15,2013-04-15 00:56:00,
2013-04-14 21:01:00,35.5,30.8,30.17,WSW,255,0.0,0.0,83,0.00,,,0.07,0,Wunderground v.1.15,2013-04-15 01:01:00,
2013-04-14 21:07:00,35.3,30.7,30.17,WSW,255,0.0,0.0,83,0.00,,,0.07,0,Wunderground v.1.15,2013-04-15 01:07:00,
2013-04-14 21:13:00,34.9,30.3,30.17,WSW,255,0.0,0.0,83,0.00,,,0.07,0,Wunderground v.1.15,2013-04-15 01:13:00,
2013-04-14 21:18:00,34.6,30.0,30.17,WSW,255,0.0,0.0,83,0.00,,,0.07,0,Wunderground v.1.15,2013-04-15 01:18:00,
2013-04-14 21:24:00,34.4,30.1,30.17,WSW,255,0.0,0.0,84,0.00,,,0.07,0,Wunderground v.1.15,2013-04-15 01:24:00,
2013-04-14 21:29:00,34.1,29.8,30.17,WSW,255,0.0,1.0,84,0.00,,,0.07,0,Wunderground v.1.15,2013-04-15 01:29:00,
2013-04-14 21:34:00,34.3,30.3,30.18,West,262,1.0,4.0,85,0.00,,,0.07,0,Wunderground v.1.15,2013-04-15 01:34:00,
2013-04-14 21:41:00,34.6,30.6,30.18,West,265,2.0,2.0,85,0.00,,,0.07,0,Wunderground v.1.15,2013-04-15 01:41:00,
2013-04-14 21:46:00,34.7,30.4,30.18,West,265,2.0,3.0,84,0.00,,,0.07,0,Wunderground v.1.15,2013-04-15 01:46:00,
2013-04-14 21:51:00,34.7,30.4,30.18,West,264,2.0,2.0,84,0.00,,,0.07,0,Wunderground v.1.15,2013-04-15 01:51:00,
2013-04-14 21:57:00,34.7,30.1,30.18,West,264,2.0,3.0,83,0.00,,,0.07,0,Wunderground v.1.15,2013-04-15 01:57:00,
2013-04-14 22:02:00,34.6,30.0,30.17,West,264,1.0,1.0,83,0.00,,,0.07,0,Wunderground v.1.15,2013-04-15 02:02:00,
2013-04-14 22:08:00,34.3,29.7,30.17,West,264,0.0,1.0,83,0.00,,,0.07,0,Wunderground v.1.15,2013-04-15 02:08:00,
2013-04-14 22:14:00,34.0,29.4,30.17,West,264,0.0,1.0,83,0.00,,,0.07,0,Wunderground v.1.15,2013-04-15 02:14:00,
2013-04-14 22:21:00,34.0,29.7,30.17,West,264,1.0,2.0,84,0.00,,,0.07,0,Wunderground v.1.15,2013-04-15 02:21:00,
2013-04-14 22:26:00,34.1,29.8,30.17,West,266,1.0,4.0,84,0.00,,,0.07,0,Wunderground v.1.15,2013-04-15 02:26:00,
2013-04-14 22:31:00,34.1,29.8,30.17,West,266,1.0,1.0,84,0.00,,,0.07,0,Wunderground v.1.15,2013-04-15 02:31:00,
2013-04-14 22:37:00,34.0,29.4,30.17,West,266,1.0,1.0,83,0.00,,,0.07,0,Wunderground v.1.15,2013-04-15 02:37:00,
2013-04-14 22:42:00,33.8,29.2,30.17,West,266,0.0,1.0,83,0.00,,,0.07,0,Wunderground v.1.15,2013-04-15 02:42:00,
2013-04-14 22:47:00,33.7,29.4,30.18,West,266,1.0,2.0,84,0.00,,,0.07,0,Wunderground v.1.15,2013-04-15 02:47:00,
2013-04-14 22:52:00,33.5,29.2,30.18,West,266,1.0,2.0,84,0.00,,,0.07,0,Wunderground v.1.15,2013-04-15 02:52:00,
2013-04-14 22:57:00,33.5,29.2,30.18,West,266,1.0,2.0,84,0.00,,,0.07,0,Wunderground v.1.15,2013-04-15 02:57:00,
2013-04-14 23:03:00,33.7,29.4,30.18,West,266,1.0,1.0,84,0.00,,,0.07,0,Wunderground v.1.15,2013-04-15 03:03:00,
2013-04-14 23:09:00,33.5,29.2,30.18,West,266,1.0,3.0,84,0.00,,,0.07,0,Wunderground v.1.15,2013-04-15 03:09:00,
2013-04-14 23:16:00,33.5,29.2,30.18,WSW,245,2.0,3.0,84,0.00,,,0.07,0,Wunderground v.1.15,2013-04-15 03:16:00,
2013-04-14 23:22:00,33.4,29.1,30.18,West,272,2.0,5.0,84,0.00,,,0.07,0,Wunderground v.1.15,2013-04-15 03:22:00,
2013-04-14 23:27:00,33.5,29.2,30.18,WSW,250,2.0,5.0,84,0.00,,,0.07,0,Wunderground v.1.15,2013-04-15 03:27:00,
2013-04-14 23:33:00,33.5,28.9,30.19,WSW,252,2.0,3.0,83,0.00,,,0.07,0,Wunderground v.1.15,2013-04-15 03:33:00,
2013-04-14 23:39:00,33.5,28.9,30.19,West,262,2.0,4.0,83,0.00,,,0.07,0,Wunderground v.1.15,2013-04-15 03:39:00,
2013-04-14 23:46:00,33.5,28.9,30.20,West,260,2.0,2.0,83,0.00,,,0.07,0,Wunderground v.1.15,2013-04-15 03:46:00,
2013-04-14 23:51:00,33.5,28.9,30.20,WSW,256,2.0,2.0,83,0.00,,,0.07,0,Wunderground v.1.15,2013-04-15 03:51:00,
2013-04-14 23:57:00,33.4,28.8,30.20,West,265,3.0,4.0,83,0.00,,,0.07,0,Wunderground v.1.15,2013-04-15 03:57:00,